Quick links : Home Page : Contact Us : Index : Site Map : Search Site : Ephemerides


(84523) 2002 UF2

Orbital Elements

The following orbital elements are taken from MPO 60252
 (84523) 2002 UF2
Epoch 2007 Oct. 27.0 TT = JDT 2454400.5                 MPC
M 302.86500              (2000.0)            P               Q
n   0.18439389     Peri.   33.13930     +0.11306460     -0.96746980
a   3.0570675      Node    51.42292     +0.83700963     -0.02999030
e   0.3238978      Incl.   16.82747     +0.53537956     +0.25120264
P   5.35           H   14.5           G   0.15           U   1
From 76 observations at 4 oppositions, 1994-2004, mean residual 0".64.
An explanation of the orbital elements is available.

These orbital elements are also available in forms suitable for loading into a number of popular planetarium-type software programs.


Ephemeris

The following ephemeris is at intervals of five days. A daily ephemeris covering the same time interval is also available.

Personalized ephemerides for this (and other) objects may be generated using the Minor Planet & Comet Ephemeris Service.

Date    TT    R. A. (2000) Decl.     Delta      r     Elong.  Phase     V
2008 08 22    06 51.43   +29 25.6    2.599    2.068    48.2    21.4    19.2
2008 08 27    07 03.66   +29 39.1    2.558    2.067    50.4    22.1    19.2
2008 09 01    07 15.83   +29 50.3    2.517    2.067    52.7    22.8    19.2
2008 09 06    07 27.92   +29 59.2    2.474    2.067    54.9    23.5    19.2
2008 09 11    07 39.91   +30 06.1    2.432    2.068    57.2    24.2    19.1
2008 09 16    07 51.77   +30 11.2    2.388    2.070    59.6    24.8    19.1
2008 09 21    08 03.49   +30 14.8    2.344    2.072    62.0    25.3    19.1
2008 09 26    08 15.05   +30 17.0    2.300    2.074    64.4    25.8    19.1
2008 10 01    08 26.41   +30 18.3    2.255    2.077    66.9    26.3    19.0
2008 10 06    08 37.55   +30 19.0    2.209    2.081    69.5    26.7    19.0
2008 10 11    08 48.44   +30 19.5    2.164    2.085    72.1    27.1    19.0
2008 10 16    08 59.06   +30 20.0    2.118    2.090    74.7    27.4    19.0
2008 10 21    09 09.40   +30 20.9    2.072    2.095    77.5    27.6    18.9
2008 10 26    09 19.41   +30 22.8    2.026    2.101    80.3    27.8    18.9
2008 10 31    09 29.06   +30 26.0    1.979    2.107    83.2    27.9    18.8
2008 11 05    09 38.33   +30 30.9    1.934    2.114    86.2    27.9    18.8
2008 11 10    09 47.17   +30 38.0    1.888    2.121    89.3    27.8    18.7
2008 11 15    09 55.57   +30 47.7    1.843    2.129    92.5    27.7    18.7
2008 11 20    10 03.47   +31 00.3    1.798    2.137    95.8    27.4    18.6
2008 11 25    10 10.83   +31 16.3    1.754    2.145    99.1    27.0    18.6
2008 11 30    10 17.61   +31 36.0    1.712    2.154   102.6    26.5    18.5
2008 12 05    10 23.74   +31 59.7    1.670    2.164   106.3    25.9    18.5
2008 12 10    10 29.19   +32 27.5    1.630    2.174   110.0    25.2    18.4
2008 12 15    10 33.89   +32 59.5    1.593    2.184   113.8    24.3    18.3
2008 12 20    10 37.79   +33 35.6    1.557    2.195   117.8    23.4    18.3
2008 12 25    10 40.82   +34 15.7    1.524    2.206   121.8    22.3    18.2
2008 12 30    10 42.94   +34 59.2    1.493    2.218   125.8    21.1    18.1
2009 01 04    10 44.08   +35 45.4    1.467    2.229   129.9    19.8    18.1
2009 01 09    10 44.24   +36 33.4    1.444    2.242   134.0    18.4    18.0
2009 01 14    10 43.39   +37 22.0    1.425    2.254   138.0    17.0    17.9
2009 01 19    10 41.55   +38 09.8    1.411    2.267   141.7    15.6    17.9
2009 01 24    10 38.76   +38 55.3    1.402    2.280   145.1    14.3    17.8
2009 01 29    10 35.11   +39 36.7    1.398    2.293   148.0    13.1    17.8
2009 02 03    10 30.72   +40 12.5    1.399    2.307   150.1    12.3    17.8
2009 02 08    10 25.78   +40 41.1    1.407    2.321   151.3    11.8    17.8
2009 02 13    10 20.48   +41 01.5    1.420    2.335   151.4    11.7    17.8
2009 02 18    10 15.04   +41 13.0    1.439    2.349   150.4    12.0    17.9
2009 02 23    10 09.69   +41 15.1    1.463    2.364   148.5    12.6    17.9
2009 02 28    10 04.62   +41 07.8    1.494    2.379   145.8    13.5    18.0
2009 03 05    10 00.05   +40 51.7    1.529    2.394   142.6    14.6    18.1
2009 03 10    09 56.10   +40 27.4    1.570    2.409   139.0    15.7    18.2
2009 03 15    09 52.88   +39 55.9    1.615    2.424   135.2    16.8    18.4
2009 03 20    09 50.45   +39 18.2    1.665    2.440   131.3    17.9    18.5
2009 03 25    09 48.83   +38 35.2    1.719    2.456   127.4    18.8    18.6
2009 03 30    09 48.02   +37 47.8    1.777    2.472   123.4    19.7    18.7
2009 04 04    09 48.00   +36 56.8    1.838    2.488   119.5    20.5    18.8
2009 04 09    09 48.72   +36 03.0    1.901    2.504   115.7    21.1    18.9
2009 04 14    09 50.13   +35 07.0    1.968    2.520   111.9    21.7    19.0
2009 04 19    09 52.16   +34 09.4    2.037    2.536   108.2    22.1    19.1
2009 04 24    09 54.76   +33 10.3    2.107    2.552   104.5    22.4    19.2
2009 04 29    09 57.89   +32 10.3    2.180    2.569   101.0    22.6    19.3
2009 05 04    10 01.47   +31 09.4    2.253    2.585    97.5    22.7    19.4
2009 05 09    10 05.47   +30 08.1    2.328    2.602    94.0    22.8    19.5
2009 05 14    10 09.81   +29 06.3    2.404    2.619    90.7    22.7    19.6
2009 05 19    10 14.48   +28 04.3    2.480    2.635    87.4    22.5    19.7
2009 05 24    10 19.42   +27 02.1    2.557    2.652    84.2    22.3    19.7
2009 05 29    10 24.60   +25 59.7    2.633    2.669    81.0    22.0    19.8
2009 06 03    10 30.00   +24 57.3    2.710    2.686    77.8    21.7    19.9
2009 06 08    10 35.58   +23 54.9    2.786    2.703    74.7    21.2    19.9
2009 06 13    10 41.32   +22 52.6    2.862    2.719    71.7    20.8    20.0
2009 06 18    10 47.19   +21 50.4    2.937    2.736    68.7    20.2    20.0
2009 06 23    10 53.19   +20 48.3    3.011    2.753    65.7    19.7    20.1
2009 06 28    10 59.29   +19 46.3    3.084    2.770    62.7    19.0    20.1
2009 07 03    11 05.48   +18 44.5    3.156    2.787    59.8    18.4    20.2
2009 07 08    11 11.74   +17 42.9    3.227    2.804    56.9    17.7    20.2
2009 07 13    11 18.07   +16 41.7    3.296    2.820    54.0    16.9    20.2
2009 07 18    11 24.45   +15 40.6    3.363    2.837    51.1    16.2    20.3
2009 07 23    11 30.88   +14 40.0    3.429    2.854    48.2    15.4    20.3
2009 07 28    11 37.36   +13 39.6    3.492    2.871    45.3    14.6    20.3
2009 08 02    11 43.87   +12 39.7    3.553    2.887    42.5    13.7    20.3
2009 08 07    11 50.40   +11 40.2    3.612    2.904    39.6    12.9    20.4
2009 08 12    11 56.96   +10 41.2    3.668    2.920    36.8    12.0    20.4
2009 08 17    12 03.53   +09 42.7    3.722    2.937    33.9    11.1    20.4

Back to Observable Critical-List Minor Planets

MPC

Valid HTML 4.01!